Lid_Strength_Index
5 5 6 8 9 6 9 8 10 8 7 6 5 5 4 4 3 4 4 3 3 3 2 2 2 1 1 2 1 1 1 1
6 5 5 6 5 9 8 12 12 10 9 8 6 5 5 4 4 4 4 4 3 3 3 2 2 1 1 1 2 1 1 1
6 7 7 7 8 7 7 8 11 11 9 5 6 5 5 4 3 4 3 4 3 3 2 2 2 1 1 1 1 1 1 1
7 5 5 5 6 7 9 9 8 9 9 5 5 4 4 4 4 4 4 4 3 3 3 2 2 2 2 2 2 1 1 1
8 6 5 7 6 6 6 7 9 10 9 4 4 4 4 4 4 4 4 4 4 3 3 3 3 2 2 2 2 1 1 1
9 8 6 7 7 6 7 9 9 8 8 6 5 5 4 4 4 4 5 5 4 4 3 3 3 3 3 2 1 1 1 2
6 6 6 7 7 7 7 7 8 8 7 6 5 5 4 4 4 4 5 5 5 4 4 3 3 3 3 3 3 2 2 2
8 7 7 7 7 7 7 7 7 7 7 4 4 4 5 4 4 5 5 5 4 4 3 3 3 3 3 3 3 3 4 4
10 7 7 9 7 7 6 6 6 8 6 4 5 6 5 5 4 5 4 4 4 4 3 3 3 2 2 2 2 3 3 3
10 8 13 7 5 5 6 6 5 5 5 5 5 5 4 3 4 4 4 4 3 3 3 2 2 2 2 1 2 2 2 2
10 10 8 7 6 7 7 8 5 5 5 5 4 4 5 4 3 3 3 3 3 2 2 2 2 1 2 2 2 2 2 2
8 11 12 8 5 5 5 9 5 5 5 5 5 8 6 4 3 3 2 2 2 2 2 2 2 1 2 2 2 2 2 1
9 10 9 5 5 4 10 9 5 5 5 5 6 5 3 3 3 2 2 2 2 2 3 2 1 1 2 2 3 1 1 1
9 11 12 4 5 8 6 4 4 4 4 4 4 3 3 3 3 2 3 2 2 3 2 2 1 2 2 3 1 0 1 1
8 8 5 4 5 3 3 4 4 4 3 3 3 3 3 3 3 2 2 2 2 3 2 2 2 2 2 1 0 0 1 1
7 6 5 4 3 3 3 3 3 3 3 3 3 3 3 3 3 3 2 3 2 2 3 3 1 1 1 1 0 1 1 1
7 5 5 4 3 3 3 3 3 2 3 3 3 3 3 3 3 3 3 2 2 2 2 2 2 1 1 0 0 1 1 1
7 4 4 4 3 2 3 3 3 3 3 2 2 3 3 3 2 3 3 2 2 2 2 2 2 1 0 0 0 1 1 1
4 3 3 3 2 2 3 3 2 2 2 3 2 2 2 2 2 3 2 2 2 2 2 1 1 1 1 0 0 1 1 1